Other Public Products
Issued by NWS Grand Forks, ND

Home | Current Version | Previous Version | Text Only | Print | Product List | Glossary Off
Versions: 1 2 3 4 5 6 7 8 9 10 11 12 13 14 15 16 17 18 19 20 21 22 23 24 25 26 27 28 29 30 31 32 33 34 35 36 37 38 39 40 41 42 43 44 45 46 47 48 49 50

000
FPUS83 KFGF 262210
OPUFGF
PRAIRIE TO PINES WEATHER ROUNDUP
NATIONAL WEATHER SERVICE EASTERN NORTH DAKOTA/GRAND FORKS ND
400 PM CST WED NOV 26 2014

 **SATELLITE DATA USED TO AUGMENT SKY COVER AT AUTOMATED STATIONS**
 *****  WEATHER ACROSS EASTERN NORTH DAKOTA  *****

CITY           SKY/WX    TMP DP  RH WIND       PRES   REMARKS
GRAND FORKS    PTCLDY     2  -7  66 N13       30.50R WCI -15
GRAND FORKS AF CLEAR      1  -8  65 N8        30.49R WCI -13
GRAND CITY NWS   N/A      1 N/A N/A N6          N/A  WCI -10
BUXTON         NOT AVBL
DEVILS LAKE    CLEAR      1 -15  46 N8        30.42R WCI -12
FARGO          CLEAR      4  -5  66 N14       30.46R WCI -14
WAHPETON ARPT  CLOUDY     5  -4  66 N12       30.44R WCI -11
$$

 *****  WEATHER ACROSS CENTRAL AND WESTERN NORTH DAKOTA  *****

CITY           SKY/WX    TMP DP  RH WIND       PRES   REMARKS
JAMESTOWN      CLEAR      1  -6  72 NW7       30.42R WCI -12
BISMARCK       CLEAR      8   1  73 NE6       30.41R WCI  -2
MINOT          CLEAR      1  -7  68 N3        30.42S
MINOT AFB      CLEAR      1  -6  75 N6        30.43R WCI -11
GARRISON         N/A      6  -1  73 N6        30.39R WCI  -4
WILLISTON      PTCLDY    11   3  70 N5        30.38R WCI   3
DICKINSON      PTCLDY    22  12  65 CALM      30.28R
HETTINGER      CLOUDY    21  13  71 NE3       30.30R
$$

 *****  OTHER OBSERVATIONS NORTHEAST NORTH DAKOTA  *****

CITY           SKY/WX    TMP DP  RH WIND       PRES   REMARKS
WALHALLA         N/A      0  -8  71 N8        30.51R WCI -15
LANGDON        FAIR       0  -9  65 NW12      30.41S WCI -18
CAVALIER       MOCLDY     0  -6  78 N10       30.51R HAZE    WCI -17
GRAFTON        FAIR       0  -8  71 N10G16    30.51R WCI -17
CANDO          FAIR       1  -8  66 N7        30.45R WCI -11
FORT TOTTEN      N/A      3  -8  58 N3        29.95
ROLLA          FAIR       0  -9  65 N13       30.40S WCI -18
RUGBY          FAIR       1  -4  78 SW7       30.43R WCI -11
 ***** THE ABOVE OBSERVATIONS ARE NON NWS ARE NOT QUALITY
        CONTROLLED AND MAY MIS-REPORT RAIN FOR SNOW...
$$

 *****  OTHER OBSERVATIONS SOUTHEAST NORTH DAKOTA *****

CITY           SKY/WX    TMP DP  RH WIND       PRES   REMARKS
COOPERSTOWN    NOT AVBL
VALLEY CITY    FAIR       3  -4  72 N8        30.42R WCI -10
OAKES            N/A      5  -2  72 N10       30.43R WCI -10
GWINNER        MOCLDY     7  -4  61 N10       30.44R WCI  -8
SHEYENNE NWR     N/A      5  -6  59 N7        29.95S WCI  -7
BUFFALO        NOT AVBL
WYNDMERE         N/A      3  -4  72 N12         N/A  WCI -13
 ***** THE ABOVE OBSERVATIONS ARE NON NWS ARE NOT QUALITY
       CONTROLLED AND MAY MIS-REPORT RAIN FOR SNOW...
$$

  *****  WEATHER ACROSS NORTHERN MINNESOTA  *****

CITY           SKY/WX    TMP DP  RH WIND       PRES   REMARKS
FLAG ISLAND    CLEAR     -2  -9  71 N9        30.41R WCI -18
WARROAD        CLEAR      1  -8  66 W7        30.42R WCI -11
ROSEAU         CLEAR      1  -9  60 NW7       30.43R WCI -11
HALLOCK        CLEAR     -2  -9  71 N10       30.50R WCI -19
THF RVR FALLS  CLEAR      1  -8  66 NW12      30.43R WCI -15
HALSTAD          N/A      2  -6  69 N13         N/A  WCI -15
FOSSTON        CLEAR      1  -9  60 NW10      30.40R WCI -14
BAUDETTE       CLEAR      0  -9  65 NW9       30.39R WCI -15
WASKISH        CLEAR      3  -6  66 CALM      30.37R
CROOKSTON      CLEAR      1  -6  71 N15       30.48R WCI -18
$$
  *****  WEATHER ACROSS CENTRAL AND WEST MINNESOTA  *****

CITY           SKY/WX    TMP DP  RH WIND       PRES   REMARKS
BEMIDJI        CLEAR      4  -5  64 W10       30.34R WCI -11
PARK RAPIDS    CLEAR      9  -8  46 NW12      30.31R WCI  -6
WADENA         PTCLDY    12  -2  52 NW13      30.31R WCI  -3
DETROIT LAKES  PTCLDY     5  -2  72 N14G20    30.38R WCI -12
MOORHEAD       CLEAR      3  -2  78 N14       30.46R WCI -15
FERGUS FALLS   MOCLDY     7  -2  66 N16       30.42R WCI -11
ELBOW LAKE     CLOUDY     9  -1  65 NW15      30.36R WCI  -8
MORRIS MN      CLOUDY     9   3  78 NW22G28   30.35R WCI -11
STAPLES        CLOUDY    12   0  57 N13       30.30R WCI  -3
WHEATON        MOCLDY     5  -2  72 NW16G23   30.44R WCI -14
$$
  *****  WEATHER ELSEWHERE ACROSS MINNESOTA  *****

CITY           SKY/WX    TMP DP  RH WIND       PRES   REMARKS
DULUTH         MOCLDY    16   6  65 N9        30.22R WCI   4
INTRNTL FALLS  CLEAR      4  -6  63 N10       30.34R WCI -11
ELY            PTCLDY     9   3  78 N6        30.24R WCI  -1
CLOQUET        MOCLDY    16   7  67 NW7       30.23R WCI   6
BRAINERD       MOCLDY    14   1  56 N14       30.29R WCI  -1
HIBBING        FAIR      12  -1  56 N13       30.26R WCI  -3
ALEXANDRIA     CLOUDY    13   5  70 NW13      30.31R WCI  -2
SAINT CLOUD    CLOUDY    22  11  62 N9        30.27R WCI  12
MINNEAPOLIS    CLOUDY    24  17  74 N9        30.25R WCI  14
$$

  *****  WEATHER ACROSS SOUTH DAKOTA  *****

CITY           SKY/WX    TMP DP  RH WIND       PRES   REMARKS
SIOUX FALLS    PTCLDY    18  10  71 N12       30.33R WCI   5
BROOKINGS      NOT AVBL
WATERTOWN      CLOUDY     9   0  67 N14       30.33R WCI  -7
HURON          CLOUDY    11   2  67 N15       30.41R WCI  -5
SISSETON         N/A      6  -3  66 N15       30.41R WCI -12
ABERDEEN       CLOUDY     9   0  67 N14       30.43R WCI  -7
MITCHELL       MOCLDY    15   7  70 NW12      30.40R WCI   2
PIERRE         CLOUDY    20  12  71 NE7       30.35R WCI  11
MOBRIDGE       CLOUDY    14   7  73 CALM      30.36R
RAPID CITY     CLOUDY    31  23  72 S3        30.24R
$$

  *****  SOME WEATHER IN NEARBY STATES *****

CITY           SKY/WX    TMP DP  RH WIND       PRES   REMARKS
GLASGOW MT     MOCLDY    22  16  78 E15       30.28S WCI   9
GREAT FALLS MT CLOUDY    29  28  96 E10       30.07F WCI  20
CHEYENNE WY    CLOUDY    32  24  72 SE9       30.14R WCI  24
SCOTTSBLUFF NE LGT SNOW  30  28  92 SW5       30.24R FOG
OMAHA NE       CLOUDY    28  20  71 N29G37    30.26R WCI  12
DES MOINES IA  LGT SNOW  32  27  81 N10       30.11R WCI  24
DAVENPORT IA   CLOUDY    28  22  78 E13       30.10R WCI  17
CHICAGO IL     CLOUDY    28  21  75 E7        30.11R WCI  21
EAU CLAIRE WI  LGT SNOW  24  20  84 NW5       30.20R FOG     WCI  18
LA CROSSE WI   CLOUDY    28  21  75 NW13      30.19R WCI  17
$$

  *****  SOME NATIONAL WEATHER *****

CITY           SKY/WX    TMP DP  RH WIND       PRES   REMARKS
LA GUARDIA NY  LGT RAIN  37  34  89 N15G24    29.79F FOG
RALEIGH NC     LGT RAIN  43  37  79 NW5       30.00R
ATLANTA GA     PTCLDY    54  21  27 W12       30.07R
NEW ORLEANS LA MOSUNNY   68  34  28 SW17G24   30.17F
OKLAHOMA CITY  MOSUNNY   55  22  27 NW18G25   30.24R
ALBUQUERQUE NM MOSUNNY   57  22  25 CALM      30.32F
SALT LAKE CITY MOSUNNY   60  28  29 CALM      30.35F
LOS ANGELES CA SUNNY     74  36  25 W10       30.15F
BOISE ID       SUNNY     59  38  45 SE5       30.25F
SEATTLE WA     CLOUDY    57  52  83 S6        30.05F
$$

*** WEATHER ACROSS MANITOBA...SASKATCHEWAN AND ONTARIO ***
                ***ONTARIO***

CITY           SKY/WX    TMP DP  RH WIND       PRES   REMARKS
GERALDTON      MOCLDY    -2 -11  65 N7        30.27R WCI -16
THUNDER BAY    MOCLDY    12   3  67 N6        30.28R WCI   3
SIOUX LOOKOUT  PTCLDY    -2 -11  65 N3        30.34R
TORONTO        CLOUDY    34  25  69 NE8       30.10F
BIG TROUT LK   CLEAR    -15 -20  76 W5        30.35R WCI -27
PICKLE LAKE    CRYSTALS  -9 -17  70 W6        30.31R WCI -23
DRYDEN         NOT AVBL
KENORA         PTCLDY    -2 -11  65 NW7       30.37R WCI -16
$$
                *** MANITOBA***

CITY           SKY/WX    TMP DP  RH WIND       PRES   REMARKS
BRANDON        PTCLDY     1  -8  66 NW7       30.46S WCI -11
DAUPHIN        CLEAR     -4 -13  65 CALM      30.51S
ISLAND LAKE    CLEAR     -9 -18  64 W6        30.41R WCI -23
PILOT MOUND      N/A     -2  -9  71 NW8         N/A  WCI -17
THE PAS        PTCLDY    -8 -15  71 W5        30.49R WCI -19
THOMPSON       CLEAR    -11 -17  77 SW5       30.41R WCI -23
WINNIPEG       PTCLDY    -4 -13  65 NW8       30.53R WCI -19
LYNN LAKE      CLEAR     -9 -15  77 SW7       30.32R WCI -24
CHURCHILL      PTCLDY    -8 -13  77 SW12      30.25S WCI -27
GILLAM         CLEAR    -11 -18  70 SW6       30.37R WCI -25
$$
                ***SASKATCHEWAN***

CITY           SKY/WX    TMP DP  RH WIND       PRES   REMARKS
ESTEVAN        PTCLDY     1  -6  71 NE5       30.40R WCI  -8
KINDERSLEY     CLOUDY    16  10  79 S7        30.23F WCI   6
LLOYDMINSTER   FLURRIES   7   3  85 E6        30.22R WCI  -3
PRINCE ALBERT  MOCLDY    -6 -11  77 E2        30.42S
REGINA         PTCLDY     0  -8  71 SE6       30.40R WCI -12


USA.gov is the U.S. government's official web portal to all federal, state and local government web resources and services.